Weather History for Sanford, NC

Change the Weather History Date:

Sunday, July 7, 2013

  Actual Average (KRDU) Record (KRDU)
Temperature  
Mean Temperature 77 °F 80 °F  
Max Temperature 89 °F 90 °F 102 °F (2010)
Min Temperature 65 °F 70 °F 55 °F (1951)
Degree Days  
Heating Degree Days 0 0  
Month to date heating degree days 0  
Since 1 June heating degree days 4  
Since 1 July heating degree days 0  
Cooling Degree Days 12 15  
Month to date cooling degree days 105  
Year to date cooling degree days 661  
Since 1 June cooling degree days 452  
Growing Degree Days 27 (Base 50)    
Moisture  
Dew Point 71 °F    
Average Humidity 80    
Maximum Humidity 98    
Minimum Humidity 56    
Precipitation  
Precipitation 0.00 in 0.13 in 1.85 in (2005)
Month to date precipitation 0.93  
Year to date precipitation 21.48  
Sea Level Pressure  
Sea Level Pressure 30.15 in    
Wind  
Wind Speed 2 mph (South)    
Max Wind Speed 10 mph    
Max Gust Speed 16 mph    
Visibility 9 miles    
Events      
T = Trace of Precipitation, MM = Missing Value Source: NWS Daily Summary

Daily Weather History Graph

Daily Weather History Graph

Search for Another Location

Airport:

Trip Planner

Search our weather history database for the weather conditions in past years. The results will help you decide how hot, cold, wet, or windy it might be!

Date:

Astronomy

Jul. 07, 2013 Rise Set
Actual Time 6:07 AM EDT 8:34 PM EDT
Civil Twilight 5:37 AM EDT 9:04 PM EDT
Nautical Twilight 5:01 AM EDT 9:41 PM EDT
Astronomical Twilight 4:20 AM EDT 10:21 PM EDT
Moon 5:40 AM EDT (7/7) 8:00 PM EDT (7/7)
Length of Visible Light 15h 26m
Length of Day
14h 27m
Waning Crescent, 0% of the Moon is Illuminated
Jul 7
Waning Crescent
Jul 8
New
Jul 15
First Quarter
Jul 22
Full
Jul 29
Last Quarter

Hourly Weather History & Observations

Time (EDT) Temp. Heat Index Dew Point Humidity Pressure Visibility Wind Dir Wind Speed Gust Speed Precip Events Conditions
12:15 AM 70.2 °F - 68.9 °F 96% 30.21 in 10.0 mi Calm Calm - N/A   Clear
12:35 AM 69.8 °F - 68.4 °F 95% 30.20 in 10.0 mi Calm Calm - N/A   Clear
12:55 AM 69.8 °F - 68.4 °F 95% 30.20 in 10.0 mi Calm Calm - N/A   Clear
1:15 AM 69.1 °F - 68.0 °F 96% 30.20 in 10.0 mi Calm Calm - N/A   Clear
1:35 AM 69.3 °F - 68.2 °F 96% 30.20 in 10.0 mi Calm Calm - N/A   Clear
1:55 AM 68.4 °F - 67.3 °F 96% 30.19 in 5.0 mi Calm Calm - N/A   Clear
2:15 AM 68.0 °F - 67.1 °F 97% 30.19 in 2.0 mi Calm Calm - N/A   Clear
2:35 AM 68.0 °F - 67.1 °F 97% 30.18 in 10.0 mi Calm Calm - N/A   Clear
2:55 AM 67.8 °F - 66.9 °F 97% 30.18 in 7.0 mi Calm Calm - N/A   Clear
3:15 AM 67.6 °F - 66.7 °F 97% 30.17 in 4.0 mi Calm Calm - N/A   Clear
3:35 AM 67.6 °F - 66.7 °F 97% 30.17 in 7.0 mi Calm Calm - N/A   Clear
3:55 AM 67.3 °F - 66.4 °F 97% 30.17 in 5.0 mi Calm Calm - N/A   Clear
4:15 AM 67.1 °F - 66.4 °F 98% 30.17 in 7.0 mi Calm Calm - N/A   Clear
4:35 AM 66.6 °F - 65.8 °F 98% 30.17 in 7.0 mi Calm Calm - N/A   Clear
4:55 AM 66.2 °F - 65.5 °F 98% 30.17 in 7.0 mi Calm Calm - N/A   Clear
5:15 AM 66.4 °F - 65.7 °F 98% 30.17 in 2.0 mi Calm Calm - N/A   Clear
5:35 AM 66.6 °F - 65.8 °F 98% 30.18 in 7.0 mi Calm Calm - N/A   Clear
5:55 AM 66.4 °F - 65.7 °F 98% 30.18 in 2.5 mi Calm Calm - N/A   Clear
6:15 AM 65.8 °F - 65.3 °F 98% 30.18 in 5.0 mi Calm Calm - N/A   Clear
6:35 AM 66.2 °F - 65.3 °F 97% 30.19 in 5.0 mi Calm Calm - N/A   Clear
6:55 AM 66.9 °F - 66.2 °F 98% 30.20 in 7.0 mi Calm Calm - N/A   Scattered Clouds
7:15 AM 68.7 °F - 68.0 °F 98% 30.19 in 5.0 mi Calm Calm - N/A   Clear
7:35 AM 70.0 °F - 69.1 °F 97% 30.19 in 5.0 mi Calm Calm - N/A   Clear
7:55 AM 72.1 °F - 70.7 °F 95% 30.19 in 10.0 mi Calm Calm - N/A   Clear
8:15 AM 73.9 °F - 71.6 °F 92% 30.20 in 10.0 mi Calm Calm - N/A   Clear
8:35 AM 76.6 °F - 72.5 °F 87% 30.20 in 10.0 mi South 4.6 mph - N/A   Scattered Clouds
8:55 AM 78.3 °F - 72.9 °F 83% 30.19 in 10.0 mi South 6.9 mph - N/A   Scattered Clouds
9:15 AM 79.2 °F - 72.5 °F 80% 30.19 in 10.0 mi South 8.1 mph - N/A   Scattered Clouds
9:35 AM 80.1 °F 84.1 °F 72.5 °F 78% 30.19 in 10.0 mi SSW 6.9 mph - N/A   Scattered Clouds
9:55 AM 80.2 °F 84.2 °F 72.1 °F 76% 30.19 in 10.0 mi South 5.8 mph - N/A   Mostly Cloudy
10:15 AM 80.8 °F 84.9 °F 72.0 °F 74% 30.19 in 10.0 mi SSW 9.2 mph - N/A   Overcast
10:35 AM 80.4 °F 84.4 °F 71.8 °F 75% 30.19 in 10.0 mi South 5.8 mph - N/A   Overcast
10:55 AM 80.4 °F 84.5 °F 72.1 °F 76% 30.19 in 10.0 mi South 5.8 mph - N/A   Mostly Cloudy
11:15 AM 84.0 °F 89.6 °F 72.1 °F 67% 30.19 in 10.0 mi South 5.8 mph - N/A   Mostly Cloudy
11:35 AM 83.8 °F 89.2 °F 72.0 °F 67% 30.19 in 10.0 mi South 4.6 mph - N/A   Mostly Cloudy
11:55 AM 84.0 °F 89.6 °F 72.1 °F 67% 30.19 in 10.0 mi South 10.4 mph - N/A   Scattered Clouds
12:15 PM 83.8 °F 89.5 °F 72.1 °F 68% 30.18 in 10.0 mi SSW 6.9 mph - N/A   Scattered Clouds
12:35 PM 85.5 °F 92.2 °F 73.0 °F 66% 30.17 in 10.0 mi SSW 8.1 mph - N/A   Scattered Clouds
12:55 PM 86.4 °F 93.4 °F 72.7 °F 64% 30.17 in 10.0 mi South 8.1 mph - N/A   Scattered Clouds
1:15 PM 86.4 °F 93.4 °F 72.7 °F 64% 30.16 in 10.0 mi SSW 8.1 mph - N/A   Scattered Clouds
1:35 PM 86.0 °F 91.5 °F 71.2 °F 61% 30.16 in 10.0 mi SSW 9.2 mph - N/A   Clear
1:55 PM 87.4 °F 94.0 °F 72.0 °F 60% 30.15 in 10.0 mi SSW 5.8 mph - N/A   Clear
2:15 PM 88.0 °F 93.8 °F 71.2 °F 57% 30.14 in 10.0 mi South 5.8 mph - N/A   Scattered Clouds
2:35 PM 86.5 °F 92.5 °F 71.8 °F 61% 30.14 in 10.0 mi South 6.9 mph - N/A   Mostly Cloudy
2:55 PM 86.9 °F 92.5 °F 70.9 °F 59% 30.13 in 10.0 mi South 9.2 mph - N/A   Mostly Cloudy
3:15 PM 89.1 °F 96.5 °F 72.7 °F 58% 30.13 in 10.0 mi South 6.9 mph - N/A   Mostly Cloudy
3:35 PM 87.3 °F 93.6 °F 71.8 °F 60% 30.12 in 10.0 mi SSW 9.2 mph - N/A   Mostly Cloudy
3:55 PM 88.0 °F 95.1 °F 72.3 °F 60% 30.12 in 10.0 mi South 8.1 mph - N/A   Scattered Clouds
4:15 PM 88.7 °F 95.7 °F 72.0 °F 58% 30.11 in 10.0 mi SSW 6.9 mph 16.1 mph N/A   Scattered Clouds
4:35 PM 88.7 °F 95.7 °F 72.1 °F 58% 30.10 in 10.0 mi South 5.8 mph - N/A   Scattered Clouds
4:55 PM 88.3 °F 94.1 °F 70.9 °F 56% 30.09 in 10.0 mi SSW 9.2 mph - N/A   Scattered Clouds
5:15 PM 87.8 °F 93.8 °F 71.2 °F 58% 30.09 in 10.0 mi South 8.1 mph - N/A   Clear
5:35 PM 87.4 °F 93.5 °F 71.6 °F 59% 30.08 in 10.0 mi South 5.8 mph - N/A   Scattered Clouds
5:55 PM 87.3 °F 93.2 °F 71.4 °F 59% 30.08 in 10.0 mi South 4.6 mph - N/A   Scattered Clouds
6:15 PM 85.5 °F 91.8 °F 72.5 °F 65% 30.08 in 10.0 mi South 3.5 mph - N/A   Scattered Clouds
6:35 PM 85.1 °F 91.8 °F 72.9 °F 67% 30.07 in 10.0 mi South 3.5 mph - N/A   Clear
6:55 PM 85.5 °F 92.2 °F 72.9 °F 66% 30.08 in 10.0 mi South 3.5 mph - N/A   Scattered Clouds
7:15 PM 86.2 °F 93.8 °F 73.4 °F 66% 30.08 in 10.0 mi South 3.5 mph - N/A   Scattered Clouds
7:35 PM 85.5 °F 92.6 °F 73.4 °F 67% 30.08 in 10.0 mi South 3.5 mph - N/A   Clear
7:55 PM 83.3 °F 89.6 °F 73.4 °F 72% 30.08 in 10.0 mi South 3.5 mph - N/A   Clear
8:15 PM 82.2 °F 88.0 °F 73.4 °F 75% 30.09 in 10.0 mi Calm Calm - N/A   Clear
8:35 PM 79.7 °F - 73.4 °F 81% 30.09 in 10.0 mi Calm Calm - N/A   Clear
8:55 PM 78.3 °F - 73.4 °F 85% 30.11 in 10.0 mi Calm Calm - N/A   Clear
9:15 PM 77.4 °F - 73.6 °F 88% 30.12 in 10.0 mi Calm Calm - N/A   Clear
9:35 PM 76.5 °F - 73.4 °F 90% 30.12 in 10.0 mi Calm Calm - N/A   Scattered Clouds
9:55 PM 77.0 °F - 73.8 °F 90% 30.14 in 10.0 mi Calm Calm - N/A   Scattered Clouds
10:15 PM 76.3 °F - 73.9 °F 92% 30.14 in 10.0 mi Calm Calm - N/A   Scattered Clouds
10:35 PM 76.3 °F - 73.8 °F 92% 30.14 in 10.0 mi Calm Calm - N/A   Scattered Clouds
10:55 PM 76.1 °F - 73.4 °F 91% 30.14 in 10.0 mi Calm Calm - N/A   Scattered Clouds
11:15 PM 77.5 °F - 73.2 °F 86% 30.14 in 10.0 mi Calm Calm - N/A   Scattered Clouds
11:35 PM 76.5 °F - 73.2 °F 90% 30.14 in 10.0 mi West 3.5 mph - N/A   Scattered Clouds
11:55 PM 75.4 °F - 72.1 °F 90% 30.14 in 10.0 mi Calm Calm - N/A   Clear